GFSGL_700_rhum_000.txt.gz
RH
32 18 18 14 10 8 6 6 5 5 6 6 6 9 50 74 67 75 73 59 43 15 8 11 15 21 22 26 32 38 48 58 61 52 48 35 32 26 54 98 96 83 90
22 18 14 10 8 7 6 6 6 6 7 10 16 27 43 71 86 83 71 41 3 4 8 12 22 24 26 32 43 53 64 70 75 67 58 52 44 41 35 56 98 98 81
21 16 11 8 7 7 6 6 7 8 12 23 30 44 69 86 81 70 49 11 8 10 16 22 26 29 30 42 57 70 74 73 78 84 64 67 54 50 52 74 62 97 98
16 12 9 8 8 7 7 8 9 13 17 28 40 55 89 84 72 81 45 20 15 19 27 30 31 30 36 54 68 76 81 84 84 84 83 81 74 70 63 58 94 86 91
13 10 8 8 8 8 9 10 11 14 22 38 52 71 72 83 100 79 60 33 20 24 29 32 31 29 46 68 82 86 91 95 95 91 88 98 99 94 83 74 61 50 56
12 10 9 9 9 10 12 12 14 25 37 56 69 91 93 100 91 87 74 36 22 26 28 30 26 32 60 81 87 90 94 98 99 100 96 100 100 100 100 98 89 63 46
11 10 11 11 12 13 13 15 22 42 59 74 91 99 92 91 91 95 59 26 22 26 31 30 23 49 78 83 85 88 90 100 100 100 100 100 100 100 100 100 99 94 74
13 12 13 14 13 14 16 27 41 54 66 82 89 93 92 96 94 57 25 20 27 31 33 25 30 71 88 86 86 88 93 100 100 100 100 100 99 100 99 95 96 88 76
15 14 15 14 13 17 26 39 56 65 73 82 100 100 100 85 31 25 21 23 28 33 29 29 54 88 86 89 88 92 99 100 100 100 100 100 100 100 100 94 86 83 70
15 14 14 15 18 23 37 53 68 70 74 76 61 30 21 33 34 29 26 32 33 34 32 40 77 92 87 90 89 97 100 100 100 100 100 100 100 100 98 93 90 80 67
13 14 16 20 22 34 51 72 78 73 59 26 22 28 38 44 41 32 33 41 42 37 34 49 88 94 86 82 8 58 100 99 100 100 100 100 100 100 100 96 89 81 67
14 16 20 23 31 45 65 87 83 73 41 31 32 32 34 44 40 33 42 51 47 40 40 61 91 95 80 60 26 27 100 100 100 100 100 100 100 100 100 99 88 80 73
16 20 23 24 42 52 77 92 94 91 64 39 30 27 35 46 37 37 50 51 46 43 47 64 89 95 83 77 43 37 75 100 100 100 100 100 100 100 100 100 100 99 95
20 24 25 30 50 64 85 100 99 97 60 35 27 26 38 42 37 45 48 46 45 45 52 66 86 92 96 97 82 37 41 93 100 100 100 100 100 100 100 100 100 100 100
26 27 28 44 52 70 82 100 99 92 46 28 26 28 39 38 45 45 45 46 48 51 52 68 81 97 100 100 99 54 38 57 100 100 100 100 100 100 100 100 100 100 100
30 31 34 54 55 68 93 100 97 51 26 27 26 32 36 39 43 42 44 46 52 58 53 64 74 83 93 97 100 93 45 39 87 99 100 100 100 100 100 100 100 100 100
37 38 39 65 70 84 96 90 44 24 32 31 28 33 34 40 40 40 41 44 51 56 54 56 72 71 78 90 96 100 93 43 37 94 99 100 100 99 98 99 100 100 100
44 43 44 81 88 86 84 42 33 41 37 32 32 33 38 39 38 40 38 42 48 46 46 45 56 69 71 75 84 95 100 95 46 35 61 99 100 100 100 100 98 99 98
46 49 54 81 100 92 74 42 50 45 32 30 31 34 40 37 39 38 36 42 45 42 40 39 38 43 63 71 73 80 86 96 100 60 37 31 63 99 100 100 100 100 100
51 56 60 78 95 100 84 53 54 39 27 29 31 34 38 35 40 38 34 41 46 46 45 45 44 38 34 48 70 72 79 85 91 98 96 49 31 27 41 84 100 100 98
50 56 64 70 96 100 94 63 60 40 22 26 33 35 37 36 40 40 33 36 40 43 46 46 46 46 40 31 35 63 70 75 83 88 95 100 90 40 28 23 26 36 42
53 56 61 68 92 98 98 77 69 59 31 23 30 33 32 34 38 43 37 33 38 46 49 48 46 43 43 39 27 26 56 73 75 80 86 90 96 99 81 37 25 21 22
53 53 53 58 80 90 96 86 77 78 71 40 26 32 34 34 38 40 44 36 36 42 46 48 50 47 46 37 20 20 26 59 79 79 84 88 90 93 97 97 78 38 30
61 55 49 50 68 86 93 93 93 91 94 93 70 33 32 36 38 40 42 46 44 41 44 50 55 52 48 33 10 10 21 38 71 82 83 86 90 94 95 97 98 95 68
71 64 50 49 60 80 95 99 100 100 99 99 98 98 88 46 38 43 47 46 50 53 49 52 59 55 51 35 9 8 17 37 59 79 85 86 88 91 94 96 98 99 99
74 64 52 52 60 80 97 100 100 100 100 100 99 99 99 99 97 61 48 50 52 56 59 60 63 60 54 45 14 12 19 34 55 73 83 86 87 88 92 94 96 99 100

GFSGL_700_rhum_006.txt.gz
RH
98 94 75 54 26 17 16 15 13 10 8 7 8 9 11 18 33 79 72 95 100 100 100 100 99 59 71 75 70 85 100 100 100 13 42 81 60 55 51 48 49 52 100
97 66 56 37 23 18 17 15 13 10 8 8 10 12 16 28 57 63 89 100 100 100 100 97 86 61 29 25 46 98 100 94 53 35 58 65 65 61 62 61 57 95 78
71 69 55 29 20 19 18 16 12 9 9 11 13 17 28 42 57 93 100 96 85 86 84 81 49 17 14 21 28 29 28 35 62 72 67 71 70 64 66 78 74 100 100
78 70 38 23 20 19 19 16 11 10 11 13 18 26 43 51 69 97 97 96 89 91 87 59 20 16 20 26 28 27 33 65 83 79 76 75 76 90 96 99 99 99 100
82 50 27 21 21 21 20 14 10 11 14 16 25 37 51 68 78 100 100 100 86 90 52 24 21 22 30 30 28 33 68 82 78 78 77 85 91 100 100 100 97 98 100
67 34 22 23 22 23 18 12 11 14 16 22 38 93 64 70 81 87 89 85 58 33 31 26 26 32 33 28 30 66 84 74 77 83 87 94 99 100 100 100 99 97 98
42 23 24 23 24 23 13 11 13 17 21 32 51 84 77 69 47 28 21 28 35 36 34 28 36 37 29 32 60 82 73 54 12 55 89 92 100 100 100 100 100 98 92
29 32 27 25 26 16 9 12 17 21 30 40 60 67 60 41 26 27 28 25 30 37 32 41 39 32 34 56 80 79 58 29 29 86 96 96 100 100 100 100 100 95 98
43 34 26 27 17 9 10 17 23 26 39 51 73 71 66 60 42 32 27 26 34 34 42 41 37 37 45 74 86 80 70 35 42 88 95 93 95 96 98 96 92 100 100
41 29 28 16 8 10 17 23 26 30 47 58 77 80 84 76 48 30 26 30 30 38 40 40 37 42 54 80 89 91 90 45 36 78 97 94 93 99 100 98 95 94 100
33 28 14 8 10 14 18 26 28 38 54 65 87 89 84 66 35 26 26 32 36 38 39 42 46 49 62 81 89 92 91 57 38 87 96 94 94 99 100 100 100 99 93
28 12 8 10 12 13 19 29 32 44 57 69 78 91 75 35 25 27 31 34 37 36 39 46 51 54 61 73 89 92 94 75 42 94 98 97 99 100 100 100 100 100 98
10 9 9 13 13 13 20 30 36 52 62 74 82 82 33 22 27 28 32 36 35 37 40 49 55 55 59 61 73 91 93 91 45 97 100 99 99 100 100 100 100 100 98
10 10 14 16 13 14 25 31 38 57 67 76 81 38 30 35 27 29 34 35 35 35 39 48 52 51 51 59 64 77 92 96 49 91 100 100 100 100 100 100 100 100 100
12 17 21 16 14 20 31 34 42 64 73 77 47 38 43 31 26 30 36 35 34 35 41 43 40 40 44 54 63 66 79 95 90 43 99 100 100 100 100 100 100 100 99
18 26 25 17 19 26 32 36 45 68 67 59 46 51 36 24 24 31 34 35 31 35 40 41 41 39 38 36 41 54 63 80 97 76 45 100 100 100 100 100 100 100 100
28 32 28 21 24 29 34 38 44 63 75 63 55 50 24 22 24 30 31 35 29 32 38 39 40 40 41 39 33 30 44 59 76 97 82 31 93 100 100 100 100 100 100
37 36 29 29 30 34 37 39 44 65 82 77 59 51 22 20 25 28 28 33 28 27 33 37 39 40 40 40 40 32 24 35 58 75 92 95 33 43 99 100 100 100 100
41 39 35 37 41 38 41 46 49 64 80 85 66 58 31 21 24 27 27 28 36 28 28 34 36 38 39 41 44 34 17 17 33 60 75 88 99 66 23 49 98 100 100
45 44 42 39 44 53 53 53 56 59 78 83 77 70 57 38 25 26 27 27 30 36 29 29 34 35 37 40 44 38 12 8 13 35 60 74 86 98 96 36 21 32 76
58 53 45 47 50 59 64 64 61 59 74 87 86 80 84 80 61 34 29 29 30 33 37 34 30 32 35 37 41 41 16 7 8 17 44 62 74 85 91 99 78 23 19
66 64 54 47 44 52 64 71 70 61 61 86 94 92 92 96 95 96 70 38 34 34 36 38 41 38 36 38 39 40 22 12 12 14 24 46 62 73 81 89 96 99 56
70 78 77 72 66 54 57 67 73 63 63 74 97 100 100 97 100 100 98 99 90 61 42 40 42 46 46 44 44 42 37 16 16 17 20 31 51 64 72 79 87 93 98
70 86 82 73 71 69 64 71 78 66 68 81 96 100 100 100 98 95 96 98 99 100 98 96 56 50 51 50 51 45 44 27 16 18 21 26 39 58 66 73 80 86 93
48 58 64 54 66 82 83 91 88 72 79 95 100 100 100 100 100 98 98 98 97 100 100 100 99 77 70 57 54 55 48 47 23 18 20 24 33 44 58 64 71 78 84
48 100 99 75 92 99 100 100 97 81 74 71 64 56 47 34 25 20 22 25 47 74 90 100 100 100 100 85 61 61 60 55 48 26 23 22 24 35 48 57 63 71 78

GFSGL_700_rhum_009.txt.gz
RH
84 90 99 94 69 66 49 28 23 20 16 8 6 7 8 15 78 94 94 76 100 97 92 100 100 98 99 100 100 100 100 100 97 47 86 75 48 70 64 61 56 49 50
90 94 97 71 73 57 35 25 23 20 12 6 6 8 12 31 42 58 98 94 96 99 97 92 97 100 100 100 100 100 100 100 98 31 20 32 67 71 63 63 59 75 62
97 99 81 79 73 47 28 25 22 17 8 6 8 11 32 28 58 97 96 100 99 98 100 96 98 98 69 59 50 32 32 30 29 24 32 69 66 66 66 71 81 74 73
98 96 83 86 60 34 27 25 22 11 7 7 9 14 18 58 75 100 100 100 99 100 100 96 45 29 26 24 28 30 30 28 33 56 73 66 67 69 82 93 94 100 99
98 89 89 79 44 30 30 24 15 7 7 10 17 18 63 88 95 70 67 78 88 60 32 24 33 32 27 27 33 29 29 43 70 75 65 47 38 92 100 96 100 100 88
99 91 93 61 34 34 26 21 8 7 10 15 51 59 79 88 68 78 37 22 21 28 29 28 35 33 35 35 27 24 42 75 75 56 25 17 74 88 98 100 98 96 88
97 96 77 74 61 28 24 10 8 11 16 43 75 80 69 74 64 56 46 36 30 26 26 33 31 44 38 32 33 48 74 80 71 51 31 58 98 100 100 100 100 99 97
98 96 95 80 34 27 13 8 12 22 70 89 86 87 82 61 62 71 66 40 26 25 30 30 38 39 34 34 37 57 80 86 83 54 38 55 94 98 99 98 95 94 86
98 94 76 47 30 17 8 11 15 19 71 97 100 74 70 78 68 79 62 30 24 26 31 36 34 40 37 38 46 66 79 86 85 56 37 71 93 96 94 93 93 96 87
94 91 95 53 22 8 10 12 14 20 42 90 85 59 64 94 75 71 38 25 24 26 34 35 30 34 41 44 52 68 78 84 86 58 51 88 90 90 89 95 99 100 95
97 94 89 29 10 9 12 13 14 23 30 35 46 58 66 74 71 31 23 25 24 29 33 32 36 38 47 49 56 65 79 82 87 54 78 87 93 92 100 100 100 100 100
97 90 58 36 12 11 14 12 17 27 31 38 48 63 68 72 42 32 29 24 24 31 31 30 34 39 46 46 54 60 68 87 89 52 85 88 91 92 94 100 100 100 100
94 64 32 16 12 17 14 13 20 31 34 42 64 68 77 50 47 34 23 22 30 32 27 28 34 40 41 41 40 48 58 71 90 61 78 91 91 94 96 99 100 97 92
57 42 22 13 18 20 16 18 29 32 36 58 70 73 62 43 48 29 19 22 31 31 24 28 34 36 35 33 30 33 48 60 80 90 49 94 94 94 96 96 100 100 100
44 32 19 20 23 21 19 25 33 37 38 63 68 67 51 51 39 24 23 27 32 30 25 29 34 34 35 37 36 30 30 45 63 86 86 49 94 93 95 95 94 98 100
26 18 22 27 30 27 24 26 32 34 40 53 75 70 56 55 25 19 23 29 32 32 24 27 30 32 34 35 36 36 29 26 43 64 87 86 39 94 96 96 94 93 98
19 25 29 34 34 32 34 35 32 38 37 43 64 78 66 56 30 20 22 26 29 32 23 24 28 30 31 32 35 39 31 20 22 42 64 87 94 30 88 97 97 96 96
24 31 38 42 42 39 40 44 51 48 47 46 54 74 74 60 43 23 22 22 26 29 30 21 24 28 30 32 35 40 39 16 11 19 46 66 86 97 40 49 97 97 97
34 41 51 52 52 48 45 46 50 58 59 55 56 66 79 71 58 42 29 24 25 27 29 29 23 23 26 31 34 37 38 21 9 9 25 51 67 82 97 64 24 76 99
44 42 45 61 65 59 51 49 51 56 61 68 62 62 87 78 67 71 66 47 31 28 30 30 33 30 25 26 30 34 36 28 14 11 12 32 54 68 79 94 89 22 22
57 82 81 63 67 77 76 69 60 55 64 74 76 70 94 100 88 80 91 90 86 58 35 34 33 34 37 36 32 33 33 35 20 16 16 19 39 57 67 77 87 98 51
55 53 61 60 78 87 85 79 78 77 64 66 76 72 80 100 100 96 97 99 98 96 98 89 58 43 40 40 42 41 37 32 32 17 17 19 24 45 58 67 75 84 94
37 36 35 40 52 64 70 76 57 59 66 76 86 75 77 99 98 100 100 100 99 99 100 100 99 100 98 73 48 46 46 41 35 28 18 18 21 29 49 60 67 74 81
29 30 43 64 59 72 87 94 70 89 94 99 99 86 91 100 99 99 100 100 100 98 98 100 100 100 100 100 86 57 52 50 46 42 27 19 18 24 33 48 60 66 72
34 36 55 100 99 75 100 93 67 95 100 100 100 99 100 100 100 99 99 91 63 44 38 44 68 85 100 100 100 98 82 58 56 52 45 27 21 20 23 32 41 54 65
33 37 38 52 60 100 100 86 76 97 98 99 99 99 100 96 91 66 48 31 22 22 22 19 18 21 64 97 100 99 100 89 65 63 61 49 30 25 24 22 27 34 48

GFSGL_700_rhum_012.txt.gz
RH
63 72 78 84 92 99 94 75 64 49 33 30 21 7 5 6 8 10 15 29 59 81 99 97 81 89 90 76 79 76 56 53 61 28 24 26 24 26 22 39 56 51 50
67 78 88 94 98 98 88 75 62 41 35 26 10 6 5 8 10 15 29 36 84 83 72 92 93 78 97 84 71 24 27 26 33 28 22 24 23 30 53 60 54 51 49
74 83 96 99 100 98 93 66 40 37 30 16 6 6 7 12 15 28 55 56 68 93 85 85 80 95 80 64 21 25 24 26 30 30 23 26 42 67 60 52 37 55 56
81 100 99 100 100 96 88 37 55 61 22 7 6 8 14 18 42 58 76 80 74 62 63 40 25 20 18 16 23 22 29 30 26 29 39 55 67 51 22 21 48 65 65
95 100 99 99 98 98 81 50 94 58 10 7 8 17 32 42 64 69 81 80 75 38 34 28 22 19 21 20 27 27 28 27 31 50 67 70 55 30 46 66 73 76 74
100 100 99 98 98 93 78 93 44 11 8 10 16 36 54 50 57 55 75 71 57 56 44 22 18 24 21 25 28 26 26 32 51 76 76 73 51 33 44 79 88 82 69
100 100 98 100 100 96 94 63 50 11 20 13 26 53 70 67 50 52 67 72 77 62 30 20 19 26 28 32 33 37 42 60 80 88 82 75 45 36 61 87 92 93 85
100 99 99 97 94 95 90 61 21 55 15 18 36 73 71 68 72 67 83 76 74 41 23 22 22 30 26 30 32 34 43 61 80 85 85 76 44 71 93 91 86 80 83
100 100 99 96 97 95 63 69 62 14 13 14 27 65 81 58 74 79 83 84 45 24 24 23 27 28 30 33 35 37 42 56 75 86 89 59 70 88 93 87 91 87 80
95 95 94 93 94 95 93 51 25 19 13 17 26 42 71 70 72 68 92 63 27 26 22 26 26 24 28 33 38 39 40 48 65 77 79 58 80 83 85 100 100 89 93
96 94 96 95 93 88 66 43 42 17 13 19 20 30 49 49 64 72 72 39 32 21 21 29 25 23 28 36 39 37 37 43 55 81 71 61 80 82 87 94 93 97 96
100 96 96 94 93 71 60 46 20 15 16 18 23 30 41 58 66 66 50 33 22 20 27 28 23 26 30 33 33 32 34 39 48 68 80 57 81 84 89 89 85 93 98
97 95 93 90 84 65 38 20 18 17 18 23 27 33 52 72 63 52 49 29 21 22 28 26 22 27 32 32 33 31 28 27 31 53 86 57 76 86 88 89 87 94 100
96 94 88 77 51 24 20 23 22 21 23 27 32 41 74 93 96 53 50 23 20 22 30 25 20 23 27 28 28 29 28 26 23 31 56 86 53 84 88 86 81 79 91
87 74 50 26 22 23 21 22 25 29 30 34 40 48 77 100 95 53 52 22 18 19 25 25 20 22 23 25 26 28 30 22 16 19 36 64 87 49 89 88 83 74 92
52 26 21 22 23 27 28 30 31 31 41 46 47 51 63 89 87 60 58 27 22 22 25 27 22 20 22 22 23 27 27 20 11 9 18 44 69 88 46 88 86 79 85
24 22 21 23 27 32 39 41 42 37 36 39 57 65 66 76 90 78 62 37 23 22 24 26 28 20 20 22 23 25 28 29 18 10 8 23 51 74 92 38 78 86 85
20 22 25 30 33 39 44 51 58 53 45 42 53 64 69 73 82 92 71 55 39 27 23 24 25 28 21 21 22 24 28 31 28 15 11 12 32 55 76 94 44 57 92
24 27 34 39 46 57 61 61 69 75 70 61 52 54 66 80 76 82 84 68 65 56 38 27 26 26 27 28 25 25 26 28 30 21 16 15 19 39 58 74 93 58 25
38 43 46 43 43 61 56 43 50 64 74 83 83 77 70 93 91 81 99 86 79 87 84 70 40 32 31 32 32 35 34 33 28 26 18 16 16 23 44 59 73 90 83
38 36 41 66 75 66 47 46 61 70 72 75 61 63 82 100 100 97 94 100 99 93 94 94 91 95 88 48 42 41 43 44 43 36 30 18 17 18 28 47 60 71 84
35 36 37 43 53 54 44 71 83 74 73 88 70 58 88 100 99 92 100 98 98 98 98 98 94 96 96 98 100 98 82 47 48 46 38 31 18 18 21 32 49 60 70
33 33 34 36 38 43 72 82 82 88 78 95 83 76 100 100 100 94 94 100 99 99 99 99 99 99 100 100 99 100 99 97 56 52 51 43 31 19 18 23 35 50 57
13 13 14 17 28 51 56 70 77 99 83 94 86 90 100 99 99 99 100 100 100 100 98 100 100 100 100 100 100 100 100 100 98 71 57 53 48 31 21 17 23 34 45
9 10 10 11 14 24 42 54 96 90 90 96 90 100 94 91 96 98 99 100 99 99 99 85 63 34 28 30 55 84 100 100 96 99 80 63 59 52 32 24 20 20 28
12 12 13 17 74 81 62 85 95 100 100 92 100 100 100 100 100 98 98 98 96 96 70 36 26 27 28 24 21 20 40 93 100 100 98 83 76 70 55 34 28 26 25

GFSGL_700_rhum_015.txt.gz
RH
55 61 66 70 75 81 87 98 100 99 96 83 39 37 22 8 5 6 6 11 14 21 31 31 55 69 71 86 93 74 94 93 28 16 16 15 18 21 21 20 22 32 49
61 63 70 82 88 95 96 98 100 99 88 54 64 53 9 6 6 6 8 21 22 37 44 53 81 85 98 94 70 65 21 20 21 20 15 20 21 21 22 28 50 56 47
80 74 77 92 97 96 97 100 98 96 89 77 94 26 7 7 8 8 15 29 34 57 70 67 51 42 38 29 21 15 15 20 23 26 23 22 23 33 47 59 51 32 21
82 89 89 100 98 99 98 98 98 95 92 76 18 19 26 16 12 12 31 60 61 72 93 70 52 52 40 19 15 18 22 26 25 24 23 26 40 62 67 57 42 31 43
80 88 99 99 99 99 97 96 94 95 86 85 69 62 32 36 16 20 26 40 44 81 72 66 65 53 21 19 19 25 22 23 25 26 27 41 65 72 66 49 31 38 61
81 88 100 100 100 96 96 94 100 95 84 85 86 80 42 20 22 34 41 64 60 62 62 62 58 28 19 22 27 22 23 27 30 35 40 56 64 72 60 41 59 69 59
92 100 99 97 93 91 98 98 96 94 92 91 71 40 21 29 22 36 69 78 74 68 73 55 32 23 23 30 28 28 34 42 47 50 48 68 72 75 52 67 77 77 73
99 100 100 100 100 100 99 96 94 94 88 65 57 27 26 23 28 57 100 100 76 78 64 36 27 21 28 30 24 29 35 43 47 50 58 73 79 59 74 76 78 71 75
94 100 99 98 97 97 97 96 95 88 76 58 46 26 16 24 48 94 100 87 80 65 46 35 26 23 29 23 27 30 34 37 42 48 61 82 68 69 82 78 77 75 71
100 100 100 96 98 96 94 95 93 70 58 54 21 16 17 31 55 84 72 73 70 53 42 24 20 29 24 23 28 31 29 31 32 40 51 82 60 80 82 81 78 78 92
98 96 97 98 97 94 95 86 79 68 50 23 16 17 20 28 43 57 64 64 55 46 24 19 25 27 21 25 28 30 30 28 28 29 41 73 60 82 82 82 78 73 77
97 99 99 96 95 96 91 82 70 33 24 20 18 20 23 26 33 48 60 58 52 33 19 20 29 23 20 25 26 27 30 30 27 24 28 51 72 68 88 86 86 84 100
98 97 96 96 96 90 68 55 27 28 24 23 23 24 29 32 31 34 57 65 56 34 21 22 29 24 20 23 24 25 25 26 20 16 19 35 71 63 78 86 88 79 75
97 94 96 87 48 60 42 25 28 32 30 30 30 30 33 37 41 43 64 78 64 51 24 23 28 27 19 19 21 22 23 23 16 10 10 17 38 83 60 80 78 77 73
94 86 56 52 46 25 23 26 28 32 40 41 40 38 39 45 49 50 59 81 72 61 32 23 25 27 18 17 20 19 20 23 18 15 10 10 26 53 84 55 82 76 72
56 51 40 25 23 24 24 28 39 37 33 40 50 48 49 54 61 63 65 91 93 68 45 24 22 24 25 18 19 19 20 22 21 18 15 11 16 36 62 86 49 82 78
38 33 27 21 20 24 29 36 34 37 43 38 50 59 56 52 58 72 74 83 99 82 57 32 23 23 25 26 20 18 18 21 23 23 18 16 15 24 46 68 87 42 86
20 20 21 25 29 33 38 39 36 40 54 47 46 58 68 77 68 68 86 100 90 92 73 53 36 27 25 25 28 27 23 23 24 27 26 18 16 17 30 51 71 91 37
26 29 31 33 35 38 40 40 45 52 62 50 35 36 53 66 82 84 91 96 94 97 85 80 76 58 40 32 29 28 32 36 37 37 33 25 18 16 18 35 54 70 92
31 32 33 32 33 35 38 46 80 88 90 74 57 70 74 72 61 75 100 100 100 99 99 96 96 99 94 85 79 64 40 38 42 42 44 38 24 18 17 22 38 56 74
34 34 35 36 37 38 40 42 57 68 55 50 100 84 72 93 82 76 96 100 100 100 100 99 98 97 98 95 92 87 86 95 96 53 45 45 39 24 17 17 25 44 60
26 21 16 13 11 10 12 17 83 52 62 81 74 81 87 92 90 75 96 97 96 99 100 99 100 99 100 100 100 96 95 95 98 100 82 52 48 43 24 17 16 29 46
10 8 7 8 8 9 10 10 11 13 67 99 68 85 98 87 97 79 96 97 100 98 99 96 100 99 98 99 100 98 98 100 100 98 98 98 56 52 44 24 17 15 27
8 9 9 10 10 11 12 12 14 18 21 37 53 97 99 91 88 92 98 98 100 99 99 95 100 99 98 99 100 97 79 82 97 100 94 97 96 60 58 43 25 19 15
10 10 10 10 11 13 17 30 100 97 76 73 67 74 100 100 99 98 99 98 98 98 100 100 99 98 98 97 71 37 28 26 34 63 94 95 99 94 67 64 43 27 23
10 10 12 14 18 27 58 64 83 100 97 95 100 99 99 100 97 100 100 100 100 100 97 93 96 100 100 74 31 29 27 24 24 28 46 94 100 100 96 84 70 43 32